Regional Weather Roundup
Issued by NWS Newport/Morehead, NC

Current Version | Previous Version | Graphics & Text | Print | Product List | Glossary Off
Versions: 1 2 3 4 5 6 7 8 9 10 11 12 13 14 15 16 17 18 19 20 21 22 23 24 25 26 27 28 29 30 31 32 33 34 35 36 37 38 39 40 41 42 43 44 45 46 47 48 49 50

000
ASUS42 KMHX 231322
RWRMHX
WEATHER ROUNDUP FOR EASTERN NORTH CAROLINA
NATIONAL WEATHER SERVICE NEWPORT/MOREHEAD CITY NC
900 AM EDT WED JUL 23 2014

NOTE: "FAIR" INDICATES FEW OR NO CLOUDS BELOW 12,000 FEET
WITH NO SIGNIFICANT WEATHER AND/OR OBSTRUCTIONS TO VISIBILITY

NCZ015>017-031-032-045>047-102-103-231400-
NORTH COAST

CITY           SKY/WX    TMP DP  RH WIND       PRES   REMARKS
EDENTON        PTSUNNY   79  76  90 W5        30.06S
ELIZABETH CITY CLOUDY    77  74  90 W7        30.06R
KITTY HAWK     CLOUDY    78  75  91 W5        30.04F FOG
MANTEO         NOT AVBL

$$

NCZ045>047-081-094-103-104-231400-
CENTRAL COAST

CITY           SKY/WX    TMP DP  RH WIND       PRES   REMARKS
FRISCO         PTSUNNY   81  75  82 NW8       30.06R
SWANQUARTER      N/A     79 N/A N/A W7        30.03S

$$

NCZ095-097-098-100-101-231400-
SOUTHERN COAST

CITY           SKY/WX    TMP DP  RH WIND       PRES   REMARKS
BEAUFORT       MOSUNNY   82  75  79 W9        30.07R
CEDAR ISLAND     N/A     81 N/A N/A W6G12     30.09F
JACKSONVILLE   SUNNY     80  74  81 VRB5      30.07R
NEWPORT        NOT AVBL
PINEY ISLAND   MOSUNNY   78  77  96 W8        30.07S
WILMINGTON     SUNNY     81  74  79 NW6       30.07R


$$

NCZ011>013-027>030-043-044-078>080-089-090>093-098-231400-
COASTAL PLAIN

CITY           SKY/WX    TMP DP  RH WIND       PRES   REMARKS
AHOSKIE        CLOUDY    74  73  96 CALM      30.07S
CLINTON        CLOUDY    79  76  91 W6        30.08S
ELIZABETHTOWN  CLOUDY    77  76  98 NW3       30.08S
GOLDSBORO      CLOUDY    78  78  99 W6        30.06S
GREENVILLE     CLOUDY    77  75  94 CALM      30.09R
HAVELOCK       PTSUNNY   79  74  84 W7        30.08R
KENANSVILLE    CLOUDY    77  73  87 W5        30.09S
KINSTON        CLOUDY    77  75  94 SW5       30.08S FOG
NEW BERN       PTSUNNY   80  74  81 NW5       30.08S
RICHLANDS      MOSUNNY   81  73  78 SW7       30.07S
ROANOKE RAPIDS NOT AVBL
ROCKY MOUNT    MOSUNNY   79  74  84 W6        30.07S
WASHINGTON     CLOUDY    77  74  92 SW5       30.07F
WHITEVILLE     SUNNY     79  74  84 CALM      30.07F

$$

AMZ130-135-150-152-154-156-158-170-250-252-270-ANZ085-086-088-633-658-670-231400-
MARINE OBSERVATIONS

STATION/POSITION TIME  TEMP    WIND        PRES    WAVE   SWELL
                       AIR SEA DIR/SP/G            HT/PER HT/PER
                 (UTC) (F)     (DEG/KT/KT) (MB)    (FT/S) (FT/S)
CHESAPEAKE LIGHT NOT AVBL
BUOY 44014       1300   77 78  270/  8/  8 1016.9    2/ 7   2/ 7
DUCK             1300   76 73  260/  7/  8 1017.0
2E DUCK          1300                        N/A     2/ 7
OREGON INLET     1300   78 79  250/  7/ 11 1017.7
BUOY 44095       1300      77                N/A     3/ 6
20E OREGON INLET 1200          250/ 10/ 10   N/A
HATTERAS CG      1300   80 82  280/  9/ 13 1018.5
DIAMOND BUOY     1300          VRB 14/ 16  1017.8    3/10   2/10
CAPE LOOKOUT     1300   81     260/  9/ 10 1018.1
BEAUFORT LAB     1300   81 80  270/  3/  8 1018.0
30 SE NEW RIVER  1300   80 80  250/  6/  6 1018.7    3/ 7   3/ 7
5 SE WRIGHTSVILL 1300   76 81  330/  6/  8   N/A
BUOY 41002       1225   82 82  210/ 16/ 19 1020.4    4/ 7   2/ 7
BUOY 41004       1300   80 82  190/  6/  6 1017.6    3/ 7   3/ 7

$$


USA.gov is the U.S. government's official web portal to all federal, state and local government web resources and services.